Change the Weather History Date:

Sunday, December 30, 2012

  Actual Average Record
Temperature  
Mean Temperature 15 °F -  
Max Temperature 30 °F 24 °F 59 °F (2004)
Min Temperature 0 °F 10 °F -7 °F (1998)
Degree Days  
Heating Degree Days 50    
Moisture  
Dew Point 15 °F    
Average Humidity 83    
Maximum Humidity 93    
Minimum Humidity 64    
Precipitation  
Precipitation 0.00 in - - ()
Sea Level Pressure  
Sea Level Pressure 30.00 in    
Wind  
Wind Speed 12 mph (SSW)    
Max Wind Speed 20 mph    
Max Gust Speed 25 mph    
Visibility 8 miles    
Events Snow    
Averages and records for this station are not official NWS values.
T = Trace of Precipitation, MM = Missing Value Source: NWS Daily Summary

Daily Weather History Graph

Daily Weather History Graph

Search for Another Location

Airport or City:

Trip Planner

Search our weather history database for the weather conditions in past years. The results will help you decide how hot, cold, wet, or windy it might be!

Date:

Astronomy

Dec. 30, 2012 Rise Set
Actual Time 7:48 AM CST 4:51 PM CST
Civil Twilight 7:16 AM CST 5:23 PM CST
Nautical Twilight 6:40 AM CST 5:59 PM CST
Astronomical Twilight 6:05 AM CST 6:34 PM CST
Moon 7:27 PM CST (12/30) 8:54 AM CST (12/30)
Length of Visible Light 10h 07m
Length of Day
9h 02m
Waning Gibbous, 95% of the Moon is Illuminated
Dec 30
Waning Gibbous
Jan 4
Last Quarter
Jan 11
New
Jan 18
First Quarter
Jan 26
Full

Hourly Weather History & Observations

Time (CST) Temp. Windchill Dew Point Humidity Pressure Visibility Wind Dir Wind Speed Gust Speed Precip Events Conditions
12:15 AM 3.2 °F -7.8 °F -2.2 °F 78% 30.17 in 0.2 mi SSW 5.8 mph - N/A   Haze
12:35 AM 1.4 °F -9.9 °F -2.2 °F 85% 30.16 in 0.2 mi SSW 5.8 mph - N/A   Haze
12:55 AM -0.4 °F -13.4 °F -4.0 °F 85% 30.15 in 0.2 mi SSW 6.9 mph - N/A   Haze
1:15 AM 3.2 °F -9.1 °F -0.4 °F 85% 30.16 in 5.0 mi SW 6.9 mph - N/A   Haze
7:35 AM 6.8 °F -6.9 °F 3.2 °F 85% 30.14 in 7.0 mi SSE 9.2 mph - N/A Snow Light Snow
7:55 AM 8.6 °F -7.0 °F 5.0 °F 85% 30.15 in 6.0 mi South 12.7 mph - N/A   Clear
8:15 AM 5.0 °F -13.0 °F 1.4 °F 85% 30.16 in - South 15.0 mph - N/A   Unknown
8:35 AM 6.8 °F -10.0 °F 3.2 °F 85% 30.14 in 5.0 mi South 13.8 mph - N/A   Mist
8:55 AM 6.8 °F -10.7 °F 3.2 °F 85% 30.15 in 5.0 mi South 15.0 mph - N/A   Clear
9:15 AM 8.6 °F -8.3 °F 5.0 °F 85% 30.14 in 6.0 mi South 15.0 mph - N/A   Clear
9:35 AM 8.6 °F -8.3 °F 6.8 °F 92% 30.13 in 6.0 mi South 15.0 mph - N/A Snow Light Snow
9:55 AM 10.4 °F -4.8 °F 6.8 °F 85% 30.12 in 6.0 mi South 12.7 mph - N/A Snow Light Snow
10:15 AM 12.2 °F -2.5 °F 8.6 °F 85% 30.13 in 6.0 mi South 12.7 mph - N/A Snow Light Snow
10:35 AM 14.0 °F -0.2 °F 12.2 °F 93% 30.12 in 7.0 mi South 12.7 mph - N/A   Clear
10:55 AM 17.6 °F 4.3 °F 15.8 °F 93% 30.11 in 8.0 mi South 12.7 mph - N/A   Clear
11:15 AM 17.6 °F 3.2 °F 15.8 °F 93% 30.09 in 9.0 mi South 15.0 mph - N/A   Clear
11:35 AM 17.6 °F 3.7 °F 15.8 °F 93% 30.08 in 8.0 mi South 13.8 mph - N/A   Clear
11:55 AM 19.4 °F 6.0 °F 17.6 °F 93% 30.05 in 9.0 mi South 13.8 mph - N/A   Clear
12:15 PM 21.2 °F 7.8 °F 19.4 °F 93% 30.02 in 9.0 mi SSE 15.0 mph - N/A   Clear
12:35 PM 23.0 °F 10.1 °F 17.6 °F 80% 30.00 in 9.0 mi SSE 15.0 mph - N/A   Clear
12:55 PM 24.8 °F 11.9 °F 17.6 °F 74% 29.98 in 10.0 mi SSE 16.1 mph - N/A   Clear
1:15 PM 24.8 °F 11.9 °F 17.6 °F 74% 29.95 in 10.0 mi SSE 16.1 mph - N/A   Clear
1:35 PM 28.4 °F 16.2 °F 19.4 °F 69% 29.94 in 10.0 mi SSE 17.3 mph - N/A   Clear
1:55 PM 28.4 °F 16.2 °F 19.4 °F 69% 29.93 in 10.0 mi SSE 17.3 mph - N/A   Clear
2:15 PM 30.2 °F 19.3 °F 19.4 °F 64% 29.92 in 10.0 mi South 15.0 mph 25.3 mph N/A   Clear
2:35 PM 28.4 °F 15.4 °F 21.2 °F 74% 29.90 in 10.0 mi South 19.6 mph - N/A   Clear
2:55 PM 28.4 °F 15.8 °F 21.2 °F 74% 29.91 in 10.0 mi South 18.4 mph - N/A   Clear
3:15 PM 26.6 °F 14.3 °F 21.2 °F 80% 29.92 in 10.0 mi South 16.1 mph - N/A   Clear
3:35 PM 26.6 °F 14.7 °F 21.2 °F 80% 29.91 in 10.0 mi South 15.0 mph - N/A   Clear
3:55 PM 26.6 °F 16.2 °F 21.2 °F 80% 29.91 in 10.0 mi South 11.5 mph - N/A   Clear
4:15 PM 28.4 °F 16.2 °F 23.0 °F 80% 29.90 in 10.0 mi South 17.3 mph - N/A   Clear
4:35 PM 28.4 °F 16.6 °F 23.0 °F 80% 29.90 in 10.0 mi South 16.1 mph - N/A   Clear
4:55 PM 28.4 °F 17.0 °F 23.0 °F 80% 29.91 in 10.0 mi South 15.0 mph - N/A   Clear
5:15 PM 28.4 °F 17.0 °F 23.0 °F 80% 29.91 in 10.0 mi South 15.0 mph - N/A   Clear
5:35 PM 26.6 °F 15.7 °F 23.0 °F 86% 29.91 in 10.0 mi South 12.7 mph - N/A   Clear
5:55 PM 26.6 °F 15.7 °F 23.0 °F 86% 29.91 in 10.0 mi SSW 12.7 mph - N/A   Clear
6:15 PM 24.8 °F 14.0 °F 21.2 °F 86% 29.91 in 10.0 mi SSW 11.5 mph - N/A   Clear
6:35 PM 24.8 °F 13.4 °F 21.2 °F 86% 29.91 in 10.0 mi SSW 12.7 mph - N/A   Clear
6:55 PM 23.0 °F 11.1 °F 19.4 °F 86% 29.91 in 10.0 mi SSW 12.7 mph - N/A   Clear
7:15 PM 23.0 °F 11.7 °F 19.4 °F 86% 29.92 in 10.0 mi SW 11.5 mph - N/A   Clear
7:35 PM 23.0 °F 11.7 °F 19.4 °F 86% 29.92 in 10.0 mi SW 11.5 mph - N/A   Clear
7:55 PM 21.2 °F 8.9 °F 17.6 °F 86% 29.92 in 10.0 mi SW 12.7 mph - N/A   Clear
8:15 PM 17.6 °F 4.3 °F 15.8 °F 93% 29.93 in 10.0 mi WSW 12.7 mph - N/A   Clear
8:35 PM 23.0 °F 10.1 °F 19.4 °F 86% 29.93 in 10.0 mi West 15.0 mph - N/A   Clear
8:55 PM 23.0 °F 10.1 °F 19.4 °F 86% 29.95 in 10.0 mi West 15.0 mph - N/A   Clear
9:15 PM 21.2 °F 8.3 °F 17.6 °F 86% 29.95 in 10.0 mi West 13.8 mph - N/A   Clear
9:55 PM 19.4 °F 6.6 °F 15.8 °F 86% 29.95 in 10.0 mi WNW 12.7 mph - N/A   Clear
10:15 PM 19.4 °F 6.6 °F 15.8 °F 86% 29.95 in 10.0 mi West 12.7 mph - N/A   Clear
10:35 PM 17.6 °F 5.0 °F 14.0 °F 86% 29.97 in 10.0 mi WNW 11.5 mph - N/A   Clear
10:55 PM 17.6 °F 6.4 °F 12.2 °F 79% 29.99 in 10.0 mi WNW 9.2 mph - N/A   Clear
11:15 PM 17.6 °F 5.7 °F 14.0 °F 86% 30.00 in 10.0 mi WNW 10.4 mph - N/A   Clear
11:35 PM 17.6 °F 5.7 °F 12.2 °F 79% 30.01 in 10.0 mi NW 10.4 mph - N/A   Clear
11:55 PM 17.6 °F 4.3 °F 12.2 °F 79% 30.01 in 10.0 mi NW 12.7 mph - N/A   Clear